Location: Bakhuizen
(52.8696°N, 5.4575°E)
Time: 08:15:25
(UTC+00:00)

Cosmos 1933 - Pass Details

Date: 11 May 2021
Orbit: 547 x 563 km, 82.5° (Epoch: 15 June)

Event Time Altitude Azimuth Distance (km) Brightness Sun altitude
Rises 20:09:16 0° 191° (S) 2,726 6.6 -6.4°
Reaches altitude 10° 20:11:25 10° 192° (SSW) 1,834 5.7 -6.6°
Maximum altitude 20:15:28 84° 281° (W) 563 3.4 -7.1°
Drops below altitude 10° 20:19:31 10° 10° (N) 1,840 6.5 -7.5°
Sets 20:21:42 0° 11° (N) 2,737 7.4 -7.7°
